Location: Menlo Park
(37.4530°N, 122.1817°W)
Time: 13:03:38
(UTC-08:00)

Tiangong 2 - Visible Passes

Search period start: 19 January 2018 00:00
Search period end: 29 January 2018 00:00
Orbit: 384 x 390 km, 42.8° (Epoch: 18 January)

Date Brightness Start Highest point End Pass type
(mag) Time Alt. Az. Time Alt. Az. Time Alt. Az.
19 Jan 0.9 05:52:52 53° WSW 05:53:30 84° NNW 05:56:43 10° ENE visible
20 Jan 4.1 04:57:12 16° ENE 04:57:12 16° ENE 04:57:58 10° ENE visible
20 Jan 1.8 06:29:30 16° WNW 06:31:44 37° NNW 06:34:44 10° ENE visible
21 Jan 2.1 05:33:42 39° NNE 05:33:42 39° NNE 05:36:03 10° ENE visible
22 Jan 2.2 06:10:06 24° NW 06:11:13 31° N 06:14:07 10° ENE visible
23 Jan 3.5 05:14:09 19° NE 05:14:09 19° NE 05:15:21 10° ENE visible
23 Jan 2.3 06:46:42 10° WNW 06:49:36 31° N 06:52:30 10° ENE visible
24 Jan 2.3 05:50:25 29° N 05:50:42 29° N 05:53:34 10° ENE visible
25 Jan 4.4 04:54:23 12° ENE 04:54:23 12° ENE 04:54:42 10° ENE visible
25 Jan 2.0 06:26:39 14° NW 06:29:02 38° NNE 06:32:03 10° E visible
26 Jan 2.6 05:30:37 30° NNE 05:30:37 30° NNE 05:33:04 10° ENE visible
27 Jan 1.5 06:06:51 26° NW 06:08:24 54° NNE 06:11:33 10° E visible
28 Jan 3.2 05:10:51 25° ENE 05:10:51 25° ENE 05:12:34 10° E visible
28 Jan 1.5 06:43:18 10° WNW 06:46:25 50° SSW 06:49:31 10° SE visible
